VE6CWS-7 Weather Reports


Display with metric or nautical units.
time (UTC)temp
F
wind
direction
speed
MPH
gust
MPH
rain 1hr
in
rain 24hr
in
rain mn
in
humidity
%
barometer
mb
20260503003037 65 211 0.0 0.0 0.00 0.00 0.00 35 1012.4
20260503001536 67 214 0.0 0.0 0.00 0.00 0.00 33 1012.5
20260503000135 66 214 0.0 0.0 0.00 0.00 0.00 34 1012.6
20260502234549 65 212 0.0 6.0 0.00 0.00 0.00 37 1012.8
20260502233038 67 231 0.0 13.0 0.00 0.00 0.00 32 1012.8
20260502231535 68 132 0.0 5.0 0.00 0.00 0.00 32 1013.0
20260502230133 67 240 1.0 8.0 0.00 0.00 0.00 33 1013.3
20260502224553 65 242 5.0 15.0 0.00 0.00 0.00 35 1013.6
20260502223052 67 265 9.0 17.0 0.00 0.00 0.00 34 1013.6
20260502221549 66 230 8.0 16.0 0.00 0.00 0.00 32 1013.9
20260502220146 66 169 0.0 8.0 0.00 0.00 0.00 35 1014.0
20260502214552 65 234 5.0 14.0 0.00 0.00 0.00 34 1014.4
20260502213053 65 275 0.0 3.0 0.00 0.00 0.00 34 1014.5
20260502211546 64 289 0.0 4.0 0.00 0.00 0.00 34 1014.8
20260502210143 64 288 6.0 13.0 0.00 0.00 0.00 34 1015.0
20260502204538 63 277 0.0 7.0 0.00 0.00 0.00 35 1015.0
20260502203037 63 267 1.0 12.0 0.00 0.00 0.00 36 1015.3
20260502201543 63 278 0.0 8.0 0.00 0.00 0.00 35 1015.3
20260502200136 63 306 0.0 7.0 0.00 0.00 0.00 34 1015.6
20260502194534 63 346 3.0 11.0 0.00 0.00 0.00 35 1015.9
20260502193032 63 309 2.0 11.0 0.00 0.00 0.00 35 1016.2
20260502191531 62 268 0.0 10.0 0.00 0.00 0.00 35 1016.3
20260502190130 62 298 0.0 11.0 0.00 0.00 0.00 36 1016.4
20260502184558 62 286 8.0 11.0 0.00 0.00 0.00 36 1016.7
20260502183051 62 355 0.0 10.0 0.00 0.00 0.00 36 1016.7
20260502181549 61 325 2.0 9.0 0.00 0.00 0.00 38 1016.9
20260502180146 61 259 0.0 9.0 0.00 0.00 0.00 39 1017.0
20260502170140 58 290 2.0 7.0 0.00 0.00 0.00 45 1017.5
20260502163043 57 325 1.0 9.0 0.00 0.00 0.00 48 1017.6
20260502161541 56 302 6.0 10.0 0.00 0.00 0.00 51 1017.6
20260502160139 55 289 6.0 10.0 0.00 0.00 0.00 56 1017.8
20260502151533 51 289 7.0 11.0 0.00 0.00 0.00 63 1017.8
20260502150133 51 273 7.0 10.0 0.00 0.00 0.00 64 1017.9
20260502130144 49 329 0.0 3.0 0.00 0.00 0.00 68 1017.0
20260502123046 49 311 3.0 8.0 0.00 0.00 0.00 68 1016.9
20260502121544 48 305 0.0 8.0 0.00 0.00 0.00 71 1016.9
20260502120138 47 284 3.0 5.0 0.00 0.00 0.00 73 1016.9
20260502114542 47 284 2.0 5.0 0.00 0.00 0.00 74 1016.9
20260502113038 48 284 3.0 4.0 0.00 0.00 0.00 72 1016.8
20260502111540 48 284 2.0 8.0 0.00 0.00 0.00 72 1017.0
20260502110134 48 280 4.0 9.0 0.00 0.00 0.00 71 1016.8
20260502104556 49 273 5.0 10.0 0.00 0.00 0.00 71 1016.9
20260502103107 49 273 7.0 10.0 0.00 0.00 0.00 70 1016.8
20260502101604 49 275 6.0 9.0 0.00 0.00 0.00 70 1016.7
20260502100149 49 289 6.0 9.0 0.00 0.00 0.00 68 1016.7
20260502090143 52 302 4.0 10.0 0.00 0.00 0.00 62 1016.3
20260502071534 53 360 0.0 5.0 0.00 0.00 0.00 62 1015.6
20260502070132 54 310 4.0 6.0 0.00 0.00 0.00 61 1015.8
20260502064602 54 335 4.0 9.0 0.00 0.00 0.00 61 1015.6
20260502063058 54 333 4.0 9.0 0.00 0.00 0.00 60 1015.3
20260502061554 55 338 3.0 10.0 0.00 0.00 0.00 59 1015.1
20260502060150 55 265 7.0 13.0 0.00 0.00 0.00 59 1015.0
20260502054545 56 336 7.0 13.0 0.00 0.00 0.00 57 1014.8
20260502053043 56 338 8.0 13.0 0.00 0.00 0.00 56 1014.9
20260502051542 57 312 8.0 11.0 0.00 0.00 0.00 54 1014.8
20260502050142 58 360 9.0 14.0 0.00 0.00 0.00 51 1014.5
20260502044536 58 360 6.0 14.0 0.00 0.00 0.00 50 1014.4
20260502043037 59 5 7.0 14.0 0.00 0.00 0.00 49 1014.2
20260502041535 60 44 5.0 16.0 0.00 0.00 0.00 46 1014.1
20260502040134 60 23 5.0 18.0 0.00 0.00 0.00 45 1013.8
20260502034535 60 34 12.0 18.0 0.00 0.00 0.00 45 1013.4
20260502033042 61 27 10.0 16.0 0.00 0.00 0.00 45 1013.2
20260502031532 61 32 11.0 17.0 0.00 0.00 0.00 44 1012.8
20260502024540 63 44 9.0 13.0 0.00 0.00 0.00 39 1012.2
20260502023042 66 56 7.0 15.0 0.00 0.00 0.00 33 1012.0
20260502021538 67 43 12.0 19.0 0.00 0.00 0.00 32 1011.6
20260502020139 69 125 0.0 16.0 0.00 0.00 0.00 25 1010.9
20260502014536 69 103 7.0 12.0 0.00 0.00 0.00 25 1011.0
20260502013042 71 51 0.0 0.0 0.00 0.00 0.00 24 1011.3
20260502011535 71 246 0.0 0.0 0.00 0.00 0.00 26 1011.2
20260502010134 73 246 0.0 0.0 0.00 0.00 0.00 26 1011.2
20260502004605 73 246 0.0 0.0 0.00 0.00 0.00 24 1011.3